Flag for Australia Weather past 2 weeks in Darwin, Northern Territory, Australia

Now
81 °F

Sunny.


Feels Like: 82 °F
Forecast: 64 / 89 °F
Wind: 14 mph from Northwest

Location: Darwin Airport

Current Time: Sep 3, 2014 at 5:49:51 PM

Latest Report: Sep 3, 2014 at 5:30 PM


Visibility: 10 mi

Pressure: 29.89 "Hg

Humidity: 58%

Dew point: 64 °F

Location of DarwinLocation

Historic Weather in Darwin — Graph

°F

Darwin temperature yesterday

Maximum temperature yesterday: 88 °F (at 3:30 PM)
Minimum temperature yesterday: 64 °F (at 6:26 AM)
Average temperature yesterday: 76 °F

Past Weeks' High & Low Weather Summary

 TemperatureHumidityPressure
High93 °F (Sep 3, 2:00 PM)100% (Aug 24, 5:30 AM)30.04 "Hg (Aug 24, 5:30 AM)
Low55 °F (Aug 23, 5:00 AM)6% (Aug 28, 2:00 PM)29.83 "Hg (Aug 26, 5:00 PM)
Average75 °F58%29.93 "Hg
* Reported Aug 19 4:30 PM — Sep 3 4:30 PM, Darwin, Weather by CustomWeather, © 2014

Note: Actual official high and low records may vary slightly from our data, if they occured in-between our weather recording intervals... More about our weather records

Advertising

Darwin weather history for previous 24 hours

 ConditionsComfort  
Time TempWeatherWind HumidityBarometerVisibility
4:30 PM
Sep 3
82 °FSunny.15 mph58%29.89 "Hg10 mi
4:00 PM84 °FSunny.13 mph45%29.89 "Hg10 mi
3:30 PM86 °FSunny.13 mph43%29.89 "Hg10 mi
3:00 PM84 °FSunny.14 mph48%29.89 "Hg10 mi
2:30 PM84 °FSunny.16 mph48%29.92 "Hg10 mi
2:00 PM93 °FSunny.8 mph14%29.92 "Hg10 mi
1:30 PM91 °FSunny.9 mph14%29.92 "Hg10 mi
1:00 PM90 °FSunny.17 mph17%29.95 "Hg10 mi
12:30 PM90 °FSunny.8 mph21%29.95 "Hg10 mi
12:00 PM84 °FSunny.10 mph43%29.98 "Hg10 mi
11:30 AM84 °FSunny.9 mph43%30.01 "Hg10 mi
11:00 AM81 °FSunny.8 mph54%30.01 "Hg10 mi
10:30 AM81 °FSunny.8 mph54%30.01 "Hg10 mi
10:00 AM79 °FSunny.10 mph65%30.01 "Hg10 mi
9:30 AM75 °FSunny.9 mph78%30.04 "Hg10 mi
9:00 AM73 °FSunny.9 mph78%30.04 "Hg10 mi
8:30 AM72 °FSunny.9 mph83%30.01 "Hg10 mi
8:00 AM70 °FSunny.9 mph88%30.01 "Hg10 mi
7:30 AM70 °FFog.7 mph88%29.98 "HgN/A
7:00 AM66 °FPassing clouds.6 mph100%29.98 "HgN/A
6:30 AM66 °FFog.5 mph94%29.95 "HgN/A
6:00 AM66 °FClear.5 mph94%29.95 "Hg10 mi
5:30 AM66 °FClear.3 mph88%29.95 "Hg10 mi
5:00 AM66 °FClear.6 mph94%29.95 "Hg10 mi
4:30 AM66 °FClear.5 mph94%29.95 "Hg10 mi
4:00 AM66 °FClear.3 mph94%29.95 "Hg10 mi
3:30 AM68 °FClear.5 mph88%29.95 "Hg10 mi
3:00 AM68 °FClear.5 mph94%29.95 "Hg10 mi
2:30 AM68 °FClear.5 mph88%29.95 "Hg10 mi
2:00 AM68 °FClear.3 mph88%29.95 "Hg10 mi
1:30 AM70 °FClear.5 mph83%29.98 "Hg10 mi
1:00 AM70 °FClear.5 mph88%29.98 "Hg10 mi
12:30 AM72 °FClear.6 mph78%29.98 "Hg10 mi
12:00 AM70 °FClear.6 mph83%30.01 "Hg10 mi
11:30 PM
Sep 2
72 °FClear.7 mph78%30.01 "Hg10 mi
10:30 PM70 °FClear.5 mph73%29.98 "Hg10 mi
10:00 PM72 °FClear.5 mph73%29.98 "Hg10 mi
9:30 PM73 °FClear.7 mph69%29.98 "Hg10 mi
9:00 PM73 °FClear.7 mph65%29.95 "Hg10 mi
8:30 PM73 °FClear.5 mph65%29.95 "Hg10 mi
8:00 PM75 °FClear.3 mph65%29.92 "Hg10 mi
7:30 PM79 °FClear.6 mph54%29.92 "Hg10 mi
7:00 PM79 °FSunny.7 mph54%29.89 "Hg10 mi
6:30 PM82 °FSunny.8 mph40%29.89 "Hg10 mi
6:00 PM84 °FSunny.8 mph35%29.86 "Hg10 mi
5:30 PM84 °FSunny.10 mph35%29.86 "Hg10 mi
5:00 PM86 °FSunny.12 mph33%29.86 "Hg10 mi
Weather by CustomWeather, © 2014

See weather overviewHow to use our weather pages